Regional Weather Roundup
Issued by NWS Newport/Morehead, NC

Current Version | Previous Version | Text Only | Print | Product List | Glossary Off
Versions: 1 2 3 4 5 6 7 8 9 10 11 12 13 14 15 16 17 18 19 20 21 22 23 24 25 26 27 28 29 30 31 32 33 34 35 36 37 38 39 40 41 42 43 44 45 46 47 48 49 50
000 ASUS42 KMHX 261726 RWRMHX WEATHER ROUNDUP FOR EASTERN NORTH CAROLINA NATIONAL WEATHER SERVICE NEWPORT/MOREHEAD CITY NC 100 PM EDT FRI MAY 26 2017 NOTE: "FAIR" INDICATES FEW OR NO CLOUDS BELOW 12,000 FEET WITH NO SIGNIFICANT WEATHER AND/OR OBSTRUCTIONS TO VISIBILITY NCZ015>017-031-032-045>047-102-103-261800- NORTH COAST CITY SKY/WX TMP DP RH WIND PRES REMARKS EDENTON MOSUNNY 80 57 44 W12G22 29.86S ELIZABETH CITY SUNNY 79 60 52 W20G25 29.83F KITTY HAWK SUNNY 76 56 50 W12G22 29.83F MANTEO SUNNY 75 56 50 W14G20 29.85F $$ NCZ045>047-081-094-103-104-261800- CENTRAL COAST CITY SKY/WX TMP DP RH WIND PRES REMARKS FRISCO SUNNY 78 58 49 W15G23 29.88S $$ NCZ095-097-098-100-101-261800- SOUTHERN COAST CITY SKY/WX TMP DP RH WIND PRES REMARKS BEAUFORT SUNNY 80 61 52 SW21 29.89F CEDAR ISLAND NOT AVBL JACKSONVILLE NOT AVBL PINEY ISLAND SUNNY N/A N/A N/A W18G25 29.88F WILMINGTON SUNNY 81 55 40 NW15 29.92F $$ NCZ011>013-027>030-043-044-078>080-089-090>093-098-261800- COASTAL PLAIN CITY SKY/WX TMP DP RH WIND PRES REMARKS AHOSKIE N/A 75 55 49 W5 29.87R CLINTON SUNNY 81 57 43 W10G16 29.93S ELIZABETHTOWN SUNNY 80 52 37 W8G17 29.93F GOLDSBORO MOSUNNY 80 54 41 W13G24 29.89F GREENVILLE SUNNY 79 54 41 NW16G22 29.92S HAVELOCK MOSUNNY 82 54 37 W15G24 29.90F KENANSVILLE SUNNY 79 54 41 W13G18 29.92S KINSTON SUNNY 79 54 41 W9 29.91F NEW BERN MOSUNNY 80 57 45 W14G22 29.91S RICHLANDS SUNNY 81 56 42 W9G18 29.92F ROCKY MOUNT MOSUNNY 78 56 46 W12G22 29.90S WASHINGTON SUNNY 78 55 45 W14G23 29.88F WHITEVILLE SUNNY 80 55 42 W9 29.94S $$ AMZ130-135-150-152-154-156-158-170-250-252-270-ANZ085-086-088-633-658-670-261800- MARINE OBSERVATIONS STATION/POSITION TIME TEMP WIND PRES WAVE SWELL AIR SEA DIR/SP/G HT/PER HT/PER (UTC) (F) (DEG/KT/KT) (MB) (FT/S) (FT/S) CHESAPEAKE LIGHT NOT AVBL 64 E VA BEACH 1650 64 61 260/ 12/ 12 1009.9 6/ 7 5/ 7 DUCK 1700 74 63 270/ 16/ 21 1009.7 2 E DUCK 1700 62 N/A 2/ 2 OREGON INLET 1700 71 280/ 15/ 18 1010.3 13E OREGON INLT 1648 66 N/A 4/ 8 3/ 8 HATTERAS CG 1700 74 71 270/ 19/ 23 1011.5 DIAMOND BUOY 1650 74 79 280/ 19/ 23 1011.8 8/ 8 CAPE LOOKOUT 1700 76 250/ 14/ 18 1012.4 BEAUFORT LAB 1700 78 70 230/ 6/ 12 1011.7 30 SE NEW RVR IN 1708 73 78 250/ 14/ 17 1013.8 30 SE NEW RVR IN 1713 78 N/A 5/ 8 27 SE WRIGHTSVLE 1708 72 76 220/ 12/ 17 1013.1 5 SE WRIGHTSVLE 1708 77 74 260/ 6/ 12 1013.3 225 S CAPE HAT 1650 76 77 280/ 12/ 16 1016.2 6/ 8 5/ 8 41 SE CHARLESTON 1710 72 74 260/ 12/ 16 1016.0 $$

USA.gov is the U.S. government's official web portal to all federal, state and local government web resources and services.